Regional Weather Roundup
Issued by NWS Newport/Morehead, NC

Current Version | Previous Version | Graphics & Text | Print | Product List | Glossary Off
Versions: 1 2 3 4 5 6 7 8 9 10 11 12 13 14 15 16 17 18 19 20 21 22 23 24 25 26 27 28 29 30 31 32 33 34 35 36 37 38 39 40 41 42 43 44 45 46 47 48 49 50

974
ASUS42 KMHX 252113
RWRMHX
WEATHER ROUNDUP FOR EASTERN NORTH CAROLINA
NATIONAL WEATHER SERVICE NEWPORT/MOREHEAD CITY NC
500 PM EDT SUN JUN 25 2017

NOTE: "FAIR" INDICATES FEW OR NO CLOUDS BELOW 12,000 FEET
WITH NO SIGNIFICANT WEATHER AND/OR OBSTRUCTIONS TO VISIBILITY

NCZ015>017-031-032-045>047-102-103-252200-
NORTH COAST

CITY           SKY/WX    TMP DP  RH WIND       PRES   REMARKS
EDENTON        MOSUNNY   87  69  54 CALM      30.01S
ELIZABETH CITY CLOUDY    86  75  69 NE7       29.99S
KITTY HAWK     CLEAR     86  68  55 SW5       29.98S
MANTEO         NOT AVBL

$$

NCZ045>047-081-094-103-104-252200-
CENTRAL COAST

CITY           SKY/WX    TMP DP  RH WIND       PRES   REMARKS
FRISCO         CLOUDY    82  75  79 SW7       30.01S

$$

NCZ095-097-098-100-101-252200-
SOUTHERN COAST

CITY           SKY/WX    TMP DP  RH WIND       PRES   REMARKS
BEAUFORT       CLOUDY    82  78  88 SW9       30.01S
CEDAR ISLAND   NOT AVBL
JACKSONVILLE   CLOUDY    87  78  74 NW7       29.99F HX 100
PINEY ISLAND   CLOUDY   N/A N/A N/A VRB6      30.00F
WILMINGTON     CLOUDY    87  72  60 W8        30.01S


$$

NCZ011>013-027>030-043-044-078>080-089-090>093-098-252200-
COASTAL PLAIN

CITY           SKY/WX    TMP DP  RH WIND       PRES   REMARKS
AHOSKIE          N/A     82  66  57 NW5       30.01F
CLINTON        SUNNY     86  70  58 NW7       30.03S
ELIZABETHTOWN  NOT AVBL
GOLDSBORO      NOT AVBL
GREENVILLE     MOSUNNY   86  66  51 N5        30.03F
HAVELOCK       MOSUNNY   85  74  69 N5        30.01S
KENANSVILLE    SUNNY     84  70  61 NW6       30.02F
KINSTON        SUNNY     86  68  54 N7        30.02F
NEW BERN       MOSUNNY   87  74  64 NW8       30.01F
RICHLANDS      PTSUNNY   84  76  76 VRB5      30.02R
ROCKY MOUNT    SUNNY     85  62  46 N8        30.03S
WASHINGTON     MOSUNNY  N/A N/A N/A W6        30.01S
WHITEVILLE     CLOUDY    85  74  69 CALM      30.02R

$$

AMZ130-135-150-152-154-156-158-170-250-252-270-ANZ085-086-088-633-658-670-252200-
MARINE OBSERVATIONS

STATION/POSITION TIME  TEMP    WIND        PRES    WAVE   SWELL
                       AIR SEA DIR/SP/G            HT/PER HT/PER
                 (UTC) (F)     (DEG/KT/KT) (MB)    (FT/S) (FT/S)
CHESAPEAKE LIGHT NOT AVBL
64 E VA BEACH    2050   75 75  230/  6/  6 1016.2    4/ 7   3/ 7
DUCK             2048   77 65   70/  9/ 15 1015.1
2 E DUCK         NOT AVBL
OREGON INLET     2048          100/  8/ 10   N/A
13E OREGON INLT  2048      76                N/A     3/ 6   2/ 6
HATTERAS CG      2048   81 78  220/  7/  9 1016.0
DIAMOND BUOY     2050   79 81  240/  8/ 10 1016.2    4/ 5   3/ 5
CAPE LOOKOUT     2100   80     220/  8/ 11 1015.9
BEAUFORT LAB     2048   81 80  210/  8/ 11 1015.5
30 SE NEW RVR IN 2008   80 81  250/  8/ 12 1016.8
30 SE NEW RVR IN 2043      81                N/A     4/ 6
27 SE WRIGHTSVLE 2008   80 81  240/ 10/ 14 1016.7
5 SE WRIGHTSVLE  2008   81 80  190/  8/ 12 1016.2
225 S CAPE HAT   2050   81 81  220/ 12/ 14 1019.3    4/ 6   2/ 6
41 SE CHARLESTON 2050   81 81  220/ 12/ 14 1017.3    3/ 6   2/ 8

$$




USA.gov is the U.S. government's official web portal to all federal, state and local government web resources and services.